| time (UTC) | temp F | wind direction | speed MPH | gust MPH | rain 1hr in | rain 24hr in | rain mn in | humidity % | barometer mb |
| 20260503185824 | 66 | 210 | 2.0 | 5.0 | 0.00 | 0.00 | 0.00 | 49 | 1016.8 |
| 20260503184824 | 66 | 189 | 2.0 | 5.0 | 0.00 | 0.00 | 0.00 | 49 | 1016.8 |
| 20260503183824 | 66 | 168 | 3.0 | 4.0 | 0.00 | 0.00 | 0.00 | 49 | 1016.8 |
| 20260503182825 | 66 | 168 | 3.0 | 4.0 | 0.00 | 0.00 | 0.00 | 49 | 1016.6 |
| 20260503172844 | 68 | 121 | 1.0 | 3.0 | 0.00 | 0.00 | 0.00 | 46 | 1016.5 |
| 20260503171825 | 68 | 123 | 0.0 | 3.0 | 0.00 | 0.00 | 0.00 | 45 | 1016.6 |
| 20260503150824 | 73 | 109 | 1.0 | 3.0 | 0.00 | 0.00 | 0.00 | 43 | 1016.9 |
| 20260503130823 | 75 | 114 | 1.0 | 6.0 | 0.00 | 0.00 | 0.00 | 32 | 1017.7 |
| 20260503033822 | 59 | 174 | 2.0 | 4.0 | 0.00 | 0.00 | 0.00 | 52 | 1019.4 |
| 20260503032822 | 59 | 174 | 3.0 | 4.0 | 0.00 | 0.00 | 0.00 | 53 | 1019.4 |
| 20260503031822 | 59 | 174 | 2.0 | 4.0 | 0.00 | 0.00 | 0.00 | 53 | 1019.3 |
| 20260503030822 | 59 | 174 | 1.0 | 5.0 | 0.00 | 0.00 | 0.00 | 53 | 1019.4 |
| 20260503025841 | 59 | 174 | 2.0 | 5.0 | 0.00 | 0.00 | 0.00 | 53 | 1019.5 |
| 20260503024822 | 59 | 174 | 3.0 | 5.0 | 0.00 | 0.00 | 0.00 | 53 | 1019.5 |
| 20260503023821 | 59 | 174 | 4.0 | 5.0 | 0.00 | 0.00 | 0.00 | 53 | 1019.5 |
| 20260503022821 | 59 | 173 | 3.0 | 4.0 | 0.00 | 0.00 | 0.00 | 54 | 1019.6 |
| 20260503021821 | 59 | 173 | 4.0 | 4.0 | 0.00 | 0.00 | 0.00 | 53 | 1019.6 |
| 20260503020822 | 59 | 173 | 2.0 | 5.0 | 0.00 | 0.00 | 0.00 | 54 | 1019.6 |
| 20260503010841 | 58 | 173 | 1.0 | 4.0 | 0.00 | 0.00 | 0.00 | 56 | 1020.0 |
| 20260503005822 | 59 | 173 | 3.0 | 4.0 | 0.00 | 0.00 | 0.00 | 56 | 1020.1 |
| 20260502230821 | 60 | 175 | 2.0 | 3.0 | 0.00 | 0.00 | 0.00 | 57 | 1021.0 |
| 20260502225821 | 60 | 188 | 0.0 | 3.0 | 0.00 | 0.00 | 0.00 | 57 | 1021.1 |
| 20260502224821 | 60 | 188 | 2.0 | 2.0 | 0.00 | 0.00 | 0.00 | 55 | 1021.2 |
| 20260502223821 | 60 | 191 | 0.0 | 3.0 | 0.00 | 0.00 | 0.00 | 56 | 1021.2 |
| 20260502222821 | 60 | 192 | 0.0 | 0.0 | 0.00 | 0.00 | 0.00 | 57 | 1021.3 |
| 20260502221821 | 60 | 192 | 0.0 | 0.0 | 0.00 | 0.00 | 0.00 | 57 | 1021.4 |
| 20260502220821 | 59 | 192 | 0.0 | 0.0 | 0.00 | 0.00 | 0.00 | 58 | 1021.4 |
| 20260502215821 | 59 | 192 | 0.0 | 0.0 | 0.00 | 0.00 | 0.00 | 59 | 1021.4 |
| 20260502214821 | 59 | 192 | 0.0 | 0.0 | 0.00 | 0.00 | 0.00 | 57 | 1021.5 |
| 20260502213821 | 60 | 192 | 0.0 | 3.0 | 0.00 | 0.00 | 0.00 | 57 | 1021.5 |
| 20260502212840 | 60 | 191 | 1.0 | 2.0 | 0.00 | 0.00 | 0.00 | 56 | 1021.5 |
| 20260502211820 | 60 | 191 | 0.0 | 2.0 | 0.00 | 0.00 | 0.00 | 55 | 1021.5 |
| 20260502210820 | 60 | 187 | 1.0 | 3.0 | 0.00 | 0.00 | 0.00 | 54 | 1021.5 |
| 20260502205820 | 60 | 185 | 1.0 | 3.0 | 0.00 | 0.00 | 0.00 | 53 | 1021.5 |
| 20260502204820 | 60 | 196 | 2.0 | 2.0 | 0.00 | 0.00 | 0.00 | 53 | 1021.6 |
| 20260502203820 | 60 | 203 | 3.0 | 3.0 | 0.00 | 0.00 | 0.00 | 52 | 1021.6 |
| 20260502202820 | 61 | 191 | 1.0 | 3.0 | 0.00 | 0.00 | 0.00 | 53 | 1021.6 |
| 20260502201820 | 61 | 176 | 1.0 | 2.0 | 0.00 | 0.00 | 0.00 | 52 | 1021.7 |
| 20260502200820 | 61 | 192 | 1.0 | 3.0 | 0.00 | 0.00 | 0.00 | 51 | 1021.7 |